Regional Weather Roundup
Issued by NWS

Home | Current Version | Previous Version | Graphics & Text | Print | Product List | Glossary On
Versions: 1 2 3 4 5 6 7 8 9 10 11 12 13 14 15 16 17 18 19 20 21 22 23 24 25 26 27 28 29 30 31 32 33 34 35 36 37 38 39 40 41 42 43 44 45 46 47 48 49 50
000
ASUS44 KMEG 151210
RWRTN
TENNESSEE HOURLY STATE WEATHER ROUNDUP
NATIONAL WEATHER SERVICE MEMPHIS TN
600 AM CST FRI DEC 15 2017

TNZ002-004-019-021-049-052-054-088>092-151300-
WEST TENNESSEE

CITY           SKY/WX    TMP DP  RH WIND       PRES   REMARKS
MEMPHIS INTL   CLOUDY    29  25  85 CALM      30.18R
NWS MEMPHIS      N/A     25 N/A N/A MISG        N/A
JACKSON        CLOUDY    31  26  82 W5        30.17R WCI  26
DYERSBURG      MOCLDY    31  26  82 CALM      30.18R
SOMERVILLE     CLOUDY    28  27  93 CALM      30.16R
COVINGTON      CLOUDY    25  23  93 CALM      30.19R
UNION CITY     CLOUDY    32  27  80 W5        30.16R WCI  27
BOLIVAR        CLOUDY    27  25  93 CALM      30.15R
PARIS          CLOUDY    32  23  69 NW5       30.12R WCI  27
HUNTINGDON     CLOUDY    32  27  80 CALM      30.13R
LEXINGTON      CLOUDY    30  25  80 W3        30.14R
SELMER         CLOUDY    27  25  93 CALM      30.14R
SAVANNAH       CLOUDY    25  25 100 CALM      30.15R
$$

TNZ008-025-027-028-033-062-065-066-151300-
NORTH MIDDLE TENNESSEE

CITY           SKY/WX    TMP DP  RH WIND       PRES   REMARKS
NASHVILLE      CLOUDY    33  20  58 NW9       30.11R WCI  25
PORTLAND       CLOUDY    30  21  69 W5        30.08R WCI  25
CLARKSVILLE    CLOUDY    32  19  58 NW9       30.12R WCI  24
SMYRNA         CLOUDY    32  22  66 NW9       30.11R WCI  24
COOKEVILLE     CLOUDY    30  25  80 CALM      30.05R
GALLATIN       CLOUDY    32  19  59 W5G12     30.12S WCI  27
CROSSVILLE     CLOUDY    26  22  84 W7        30.00R WCI  18
$$

TNZ061-075-076-078-094-096-097-151300-
SOUTH MIDDLE TENNESSEE

CITY           SKY/WX    TMP DP  RH WIND       PRES   REMARKS
FAYETTEVILLE   MOCLDY    27  25  93 W3        30.08R
TULLAHOMA      CLOUDY    27  23  86 W5        30.06S WCI  21
WINCHESTER     MOCLDY    27  21  80 CALM      30.08R
MCMINNVILLE    CLOUDY    28  23  80 CALM      30.06S
COLUMBIA       CLOUDY    28  25  86 CALM      30.09R
SHELBYVILLE    CLOUDY    28  25  86 CALM      30.08S
$$

TNZ017-018-042-046-047-151300-
NORTHEAST TENNESSEE

CITY           SKY/WX    TMP DP  RH WIND       PRES   REMARKS
TRI CITIES     CLOUDY    21  20  96 CALM      29.98S
ELIZABETHTON   PTCLDY    23  23 100 CALM      29.98S
$$

TNZ012-013-036-069-073-074-151300-
CENTRAL EAST TENNESSEE

CITY           SKY/WX    TMP DP  RH WIND       PRES   REMARKS
KNOXVILLE      CLOUDY    29  28  96 CALM      30.01S
OAK RIDGE      CLOUDY    33  27  78 CALM      30.03R
DOWNTOWN KNOXV   N/A     32  30  93 CALM      30.02S
GATLINBURG     CLOUDY    25  23  93 CALM      30.01S
MORRISTOWN     CLOUDY    32  27  80 W3        29.98S
JACKSBORO      CLOUDY    34  23  64 CALM      30.04R
$$

TNZ083-085-099-151300-
SOUTHEAST TENNESSEE

CITY           SKY/WX    TMP DP  RH WIND       PRES   REMARKS
CHATTANOOGA    MOCLDY    31  22  69 N3        30.06R
DAYTON         SUNNY     28  25  86 SW3       30.04S
$$

SKY/WX REPORTED AS FAIR MEANS FEW OR NO CLOUDS BELOW
12 THOUSAND FEET.





USA.gov is the U.S. government's official web portal to all federal, state and local government web resources and services.